| time (UTC) | temp C | wind direction | speed KPH | gust KPH | rain 1hr cm | rain 24hr cm | rain mn cm | humidity % | barometer mb |
| 20260508033912 | 11 | 257 | 3.2 | 6.4 | 0.00 | 0.00 | 0.00 | 95 | 1015.4 |
| 20260508033412 | 11 | 300 | 0.0 | 0.0 | 0.00 | 0.00 | 0.00 | 95 | 1015.4 |
| 20260508032912 | 11 | 300 | 0.0 | 0.0 | 0.00 | 0.00 | 0.00 | 95 | 1015.3 |
| 20260508032411 | 11 | 300 | 0.0 | 0.0 | 0.00 | 0.00 | 0.00 | 95 | 1015.2 |
| 20260508031911 | 11 | 300 | 0.0 | 0.0 | 0.00 | 0.00 | 0.00 | 95 | 1015.1 |
| 20260508031411 | 11 | 300 | 0.0 | 0.0 | 0.00 | 0.00 | 0.00 | 95 | 1015.1 |
| 20260508030911 | 11 | 300 | 0.0 | 0.0 | 0.00 | 0.00 | 0.00 | 95 | 1015.1 |
| 20260508030410 | 11 | 300 | 0.0 | 0.0 | 0.00 | 0.00 | 0.00 | 95 | 1015.1 |
| 20260508025910 | 11 | 300 | 0.0 | 0.0 | 0.00 | 0.00 | 0.00 | 95 | 1015.0 |
| 20260508025410 | 11 | 300 | 0.0 | 3.2 | 0.00 | 0.00 | 0.00 | 95 | 1014.9 |
| 20260508024909 | 11 | 2 | 0.0 | 4.8 | 0.00 | 0.00 | 0.00 | 95 | 1014.9 |
| 20260508024409 | 11 | 4 | 0.0 | 8.0 | 0.00 | 0.00 | 0.00 | 95 | 1014.9 |
| 20260508023909 | 11 | 265 | 1.6 | 6.4 | 0.00 | 0.00 | 0.00 | 95 | 1014.9 |
| 20260508023409 | 11 | 322 | 3.2 | 8.0 | 0.00 | 0.00 | 0.00 | 95 | 1015.0 |
| 20260508022908 | 11 | 223 | 3.2 | 6.4 | 0.00 | 0.00 | 0.00 | 94 | 1015.0 |
| 20260508022408 | 11 | 255 | 1.6 | 4.8 | 0.00 | 0.00 | 0.00 | 94 | 1014.9 |
| 20260508021908 | 12 | 222 | 0.0 | 0.0 | 0.00 | 0.00 | 0.00 | 94 | 1014.6 |
| 20260508021407 | 11 | 222 | 0.0 | 0.0 | 0.00 | 0.00 | 0.00 | 94 | 1014.5 |
| 20260508020907 | 11 | 222 | 0.0 | 0.0 | 0.00 | 0.00 | 0.00 | 94 | 1014.6 |
| 20260508020407 | 11 | 222 | 0.0 | 0.0 | 0.00 | 0.00 | 0.00 | 94 | 1014.7 |
| 20260508015907 | 11 | 222 | 0.0 | 0.0 | 0.00 | 0.00 | 0.00 | 93 | 1014.7 |
| 20260508015406 | 11 | 222 | 0.0 | 0.0 | 0.00 | 0.00 | 0.00 | 93 | 1014.7 |
| 20260508014906 | 11 | 222 | 0.0 | 0.0 | 0.00 | 0.00 | 0.00 | 93 | 1014.8 |
| 20260508014406 | 11 | 222 | 0.0 | 0.0 | 0.00 | 0.00 | 0.00 | 93 | 1014.8 |
| 20260508013905 | 11 | 222 | 0.0 | 0.0 | 0.00 | 0.00 | 0.00 | 93 | 1014.8 |
| 20260508013405 | 12 | 222 | 0.0 | 0.0 | 0.00 | 0.00 | 0.00 | 93 | 1014.7 |
| 20260508012905 | 12 | 222 | 0.0 | 0.0 | 0.00 | 0.00 | 0.00 | 93 | 1014.8 |
| 20260508012405 | 12 | 222 | 0.0 | 0.0 | 0.00 | 0.00 | 0.00 | 93 | 1014.8 |
| 20260508011904 | 12 | 222 | 0.0 | 0.0 | 0.00 | 0.00 | 0.00 | 93 | 1014.8 |
| 20260508011404 | 12 | 222 | 0.0 | 0.0 | 0.00 | 0.00 | 0.00 | 93 | 1014.9 |
| 20260508010904 | 12 | 222 | 0.0 | 0.0 | 0.00 | 0.00 | 0.00 | 93 | 1014.9 |
| 20260508010403 | 12 | 222 | 0.0 | 0.0 | 0.00 | 0.00 | 0.00 | 93 | 1014.9 |
| 20260508005903 | 12 | 205 | 0.0 | 0.0 | 0.00 | 0.00 | 0.00 | 93 | 1014.9 |
| 20260508005403 | 12 | 220 | 0.0 | 1.6 | 0.00 | 0.00 | 0.00 | 93 | 1014.9 |
| 20260508004903 | 12 | 212 | 0.0 | 0.0 | 0.00 | 0.00 | 0.00 | 93 | 1014.9 |
| 20260508004402 | 12 | 212 | 0.0 | 0.0 | 0.00 | 0.00 | 0.00 | 93 | 1014.8 |
| 20260508003902 | 12 | 212 | 0.0 | 3.2 | 0.00 | 0.00 | 0.00 | 93 | 1014.9 |
| 20260508003402 | 12 | 254 | 1.6 | 1.6 | 0.00 | 0.00 | 0.00 | 93 | 1014.9 |
| 20260508002902 | 12 | 230 | 0.0 | 3.2 | 0.00 | 0.00 | 0.00 | 93 | 1015.0 |
| 20260508002401 | 12 | 229 | 0.0 | 0.0 | 0.00 | 0.00 | 0.00 | 93 | 1015.0 |
| 20260508001901 | 12 | 229 | 0.0 | 0.0 | 0.00 | 0.00 | 0.00 | 93 | 1015.0 |
| 20260508001401 | 12 | 247 | 0.0 | 3.2 | 0.00 | 0.00 | 0.00 | 93 | 1015.1 |
| 20260508000900 | 12 | 196 | 0.0 | 4.8 | 0.00 | 0.00 | 0.00 | 94 | 1015.0 |
| 20260508000400 | 12 | 237 | 0.0 | 4.8 | 0.00 | 0.00 | 0.00 | 93 | 1015.0 |
| 20260507235900 | 12 | 320 | 0.0 | 0.0 | 0.00 | 0.00 | 0.00 | 93 | 1014.9 |
| 20260507235400 | 12 | 320 | 0.0 | 0.0 | 0.00 | 0.00 | 0.00 | 93 | 1014.9 |
| 20260507234859 | 12 | 320 | 0.0 | 0.0 | 0.00 | 0.00 | 0.00 | 93 | 1014.9 |
| 20260507234359 | 12 | 320 | 0.0 | 1.6 | 0.00 | 0.00 | 0.00 | 93 | 1014.8 |
| 20260507233859 | 12 | 320 | 1.6 | 6.4 | 0.00 | 0.00 | 0.00 | 93 | 1014.8 |
| 20260507233358 | 12 | 253 | 0.0 | 1.6 | 0.00 | 0.00 | 0.00 | 93 | 1014.9 |
| 20260507232858 | 12 | 253 | 0.0 | 3.2 | 0.00 | 0.00 | 0.00 | 93 | 1014.9 |
| 20260507232358 | 12 | 251 | 0.0 | 0.0 | 0.00 | 0.00 | 0.00 | 93 | 1014.9 |
| 20260507231858 | 12 | 251 | 0.0 | 6.4 | 0.00 | 0.00 | 0.00 | 93 | 1014.9 |
| 20260507231357 | 12 | 309 | 0.0 | 8.0 | 0.00 | 0.00 | 0.00 | 93 | 1014.9 |
| 20260507230857 | 12 | 315 | 6.4 | 8.0 | 0.00 | 0.00 | 0.00 | 93 | 1014.9 |
| 20260507230357 | 12 | 240 | 3.2 | 9.7 | 0.00 | 0.00 | 0.00 | 93 | 1014.9 |
| 20260507225856 | 12 | 19 | 1.6 | 6.4 | 0.00 | 0.00 | 0.00 | 93 | 1014.8 |
| 20260507225356 | 12 | 312 | 0.0 | 8.0 | 0.00 | 0.00 | 0.00 | 93 | 1014.9 |
| 20260507224856 | 12 | 203 | 0.0 | 4.8 | 0.00 | 0.00 | 0.00 | 93 | 1014.9 |
| 20260507224356 | 12 | 261 | 4.8 | 8.0 | 0.00 | 0.00 | 0.00 | 93 | 1014.9 |
| 20260507223855 | 12 | 324 | 0.0 | 1.6 | 0.00 | 0.00 | 0.00 | 93 | 1014.8 |
| 20260507223355 | 12 | 254 | 0.0 | 8.0 | 0.00 | 0.00 | 0.00 | 93 | 1014.8 |
| 20260507222855 | 12 | 243 | 0.0 | 4.8 | 0.00 | 0.00 | 0.00 | 93 | 1014.8 |
| 20260507222354 | 13 | 278 | 1.6 | 3.2 | 0.00 | 0.00 | 0.00 | 93 | 1014.8 |
| 20260507221854 | 13 | 277 | 0.0 | 4.8 | 0.00 | 0.00 | 0.00 | 93 | 1014.9 |
| 20260507221354 | 13 | 316 | 0.0 | 4.8 | 0.00 | 0.00 | 0.00 | 93 | 1014.9 |
| 20260507220854 | 13 | 285 | 0.0 | 3.2 | 0.00 | 0.00 | 0.00 | 93 | 1014.9 |
| 20260507220353 | 13 | 9 | 0.0 | 6.4 | 0.00 | 0.00 | 0.00 | 93 | 1014.8 |
| 20260507215853 | 13 | 254 | 0.0 | 8.0 | 0.00 | 0.00 | 0.00 | 93 | 1014.8 |
| 20260507215353 | 13 | 258 | 0.0 | 0.0 | 0.00 | 0.00 | 0.00 | 93 | 1014.8 |
| 20260507214852 | 13 | 258 | 0.0 | 6.4 | 0.00 | 0.00 | 0.00 | 93 | 1014.8 |
| 20260507214352 | 13 | 4 | 6.4 | 6.4 | 0.00 | 0.00 | 0.00 | 93 | 1014.8 |
| 20260507213852 | 13 | 264 | 0.0 | 1.6 | 0.00 | 0.00 | 0.00 | 93 | 1014.8 |
| 20260507213352 | 13 | 264 | 1.6 | 3.2 | 0.00 | 0.00 | 0.00 | 93 | 1014.7 |
| 20260507212851 | 13 | 244 | 0.0 | 0.0 | 0.00 | 0.00 | 0.00 | 93 | 1014.7 |
| 20260507212351 | 13 | 244 | 0.0 | 4.8 | 0.00 | 0.00 | 0.00 | 93 | 1014.7 |
| 20260507211851 | 13 | 239 | 1.6 | 3.2 | 0.00 | 0.00 | 0.00 | 92 | 1014.7 |
| 20260507211350 | 13 | 202 | 0.0 | 1.6 | 0.00 | 0.00 | 0.00 | 93 | 1014.6 |
| 20260507210850 | 13 | 201 | 0.0 | 0.0 | 0.00 | 0.00 | 0.00 | 93 | 1014.5 |
| 20260507210350 | 13 | 201 | 0.0 | 1.6 | 0.00 | 0.00 | 0.00 | 93 | 1014.5 |
| 20260507205850 | 13 | 250 | 0.0 | 0.0 | 0.00 | 0.00 | 0.00 | 93 | 1014.5 |
| 20260507205349 | 13 | 250 | 0.0 | 4.8 | 0.00 | 0.00 | 0.00 | 93 | 1014.5 |
| 20260507204849 | 13 | 237 | 3.2 | 4.8 | 0.00 | 0.00 | 0.00 | 94 | 1014.4 |
| 20260507204349 | 13 | 286 | 0.0 | 6.4 | 0.00 | 0.00 | 0.00 | 94 | 1014.4 |
| 20260507203849 | 13 | 261 | 0.0 | 4.8 | 0.00 | 0.00 | 0.00 | 94 | 1014.4 |
| 20260507203348 | 13 | 253 | 0.0 | 4.8 | 0.00 | 0.00 | 0.00 | 94 | 1014.3 |
| 20260507202848 | 13 | 271 | 1.6 | 6.4 | 0.00 | 0.00 | 0.00 | 94 | 1014.3 |
| 20260507202348 | 13 | 277 | 0.0 | 6.4 | 0.00 | 0.00 | 0.00 | 94 | 1014.2 |
| 20260507201847 | 13 | 184 | 1.6 | 9.7 | 0.00 | 0.00 | 0.00 | 94 | 1014.2 |
| 20260507201347 | 13 | 202 | 6.4 | 9.7 | 0.00 | 0.00 | 0.00 | 94 | 1014.3 |
| 20260507200847 | 13 | 219 | 3.2 | 9.7 | 0.00 | 0.00 | 0.00 | 94 | 1014.4 |
| 20260507200347 | 13 | 205 | 3.2 | 6.4 | 0.00 | 0.00 | 0.00 | 94 | 1014.3 |
| 20260507195846 | 13 | 236 | 3.2 | 8.0 | 0.00 | 0.00 | 0.00 | 94 | 1014.2 |
| 20260507195346 | 13 | 254 | 8.0 | 12.9 | 0.00 | 0.00 | 0.00 | 93 | 1014.2 |
| 20260507194846 | 13 | 178 | 3.2 | 9.7 | 0.00 | 0.00 | 0.00 | 93 | 1014.1 |
| 20260507194345 | 13 | 248 | 8.0 | 9.7 | 0.00 | 0.00 | 0.00 | 92 | 1014.1 |
| 20260507193845 | 13 | 270 | 3.2 | 4.8 | 0.00 | 0.00 | 0.00 | 92 | 1014.1 |
| 20260507193345 | 13 | 232 | 0.0 | 0.0 | 0.00 | 0.00 | 0.00 | 91 | 1014.0 |
| 20260507192844 | 13 | 232 | 0.0 | 0.0 | 0.00 | 0.00 | 0.00 | 91 | 1013.9 |
| 20260507192344 | 13 | 232 | 0.0 | 0.0 | 0.00 | 0.00 | 0.00 | 91 | 1013.8 |
| 20260507191844 | 13 | 232 | 0.0 | 0.0 | 0.00 | 0.00 | 0.00 | 91 | 1013.7 |
| 20260507191344 | 13 | 232 | 0.0 | 0.0 | 0.00 | 0.00 | 0.00 | 90 | 1013.5 |
| 20260507190843 | 13 | 232 | 0.0 | 0.0 | 0.00 | 0.00 | 0.00 | 90 | 1013.3 |
| 20260507190343 | 13 | 232 | 0.0 | 0.0 | 0.00 | 0.00 | 0.00 | 90 | 1013.2 |
| 20260507185843 | 13 | 232 | 0.0 | 0.0 | 0.00 | 0.00 | 0.00 | 90 | 1013.1 |
| 20260507185343 | 13 | 232 | 0.0 | 0.0 | 0.00 | 0.00 | 0.00 | 90 | 1013.1 |
| 20260507184842 | 13 | 232 | 0.0 | 0.0 | 0.00 | 0.00 | 0.00 | 90 | 1013.2 |
| 20260507184342 | 13 | 232 | 0.0 | 0.0 | 0.00 | 0.00 | 0.00 | 90 | 1013.2 |
| 20260507183842 | 13 | 232 | 0.0 | 0.0 | 0.00 | 0.00 | 0.00 | 90 | 1013.0 |
| 20260507183341 | 13 | 232 | 0.0 | 0.0 | 0.00 | 0.00 | 0.00 | 90 | 1013.0 |
| 20260507182841 | 13 | 232 | 0.0 | 0.0 | 0.00 | 0.00 | 0.00 | 90 | 1012.9 |
| 20260507182341 | 13 | 232 | 0.0 | 0.0 | 0.00 | 0.00 | 0.00 | 90 | 1013.0 |
| 20260507181841 | 13 | 232 | 0.0 | 0.0 | 0.00 | 0.00 | 0.00 | 90 | 1012.8 |
| 20260507181340 | 13 | 232 | 0.0 | 0.0 | 0.00 | 0.00 | 0.00 | 90 | 1012.6 |
| 20260507180840 | 13 | 232 | 0.0 | 0.0 | 0.00 | 0.00 | 0.00 | 90 | 1012.5 |
| 20260507180340 | 13 | 232 | 0.0 | 0.0 | 0.00 | 0.00 | 0.00 | 90 | 1012.6 |
| 20260507175839 | 14 | 232 | 0.0 | 3.2 | 0.00 | 0.00 | 0.00 | 90 | 1012.7 |
| 20260507175339 | 13 | 189 | 0.0 | 4.8 | 0.00 | 0.00 | 0.00 | 90 | 1012.9 |
| 20260507174839 | 14 | 232 | 1.6 | 3.2 | 0.00 | 0.00 | 0.00 | 90 | 1012.8 |
| 20260507174339 | 14 | 225 | 0.0 | 0.0 | 0.00 | 0.00 | 0.00 | 90 | 1012.7 |
| 20260507173838 | 14 | 233 | 0.0 | 3.2 | 0.00 | 0.00 | 0.00 | 90 | 1012.7 |
| 20260507173338 | 14 | 250 | 1.6 | 4.8 | 0.00 | 0.00 | 0.00 | 90 | 1012.9 |
| 20260507172838 | 14 | 226 | 1.6 | 3.2 | 0.00 | 0.00 | 0.00 | 90 | 1012.9 |
| 20260507172337 | 14 | 219 | 1.6 | 8.0 | 0.00 | 0.00 | 0.00 | 89 | 1012.9 |
| 20260507171837 | 13 | 246 | 1.6 | 8.0 | 0.00 | 0.00 | 0.00 | 89 | 1012.9 |
| 20260507171337 | 13 | 246 | 6.4 | 9.7 | 0.00 | 0.00 | 0.00 | 89 | 1012.9 |
| 20260507170837 | 13 | 240 | 8.0 | 11.3 | 0.00 | 0.00 | 0.00 | 89 | 1012.9 |
| 20260507170336 | 13 | 236 | 3.2 | 11.3 | 0.00 | 0.00 | 0.00 | 89 | 1012.9 |
| 20260507165836 | 13 | 239 | 4.8 | 16.1 | 0.00 | 0.00 | 0.00 | 88 | 1012.9 |
| 20260507165336 | 14 | 216 | 3.2 | 3.2 | 0.00 | 0.00 | 0.00 | 87 | 1012.7 |
| 20260507164835 | 14 | 227 | 0.0 | 0.0 | 0.00 | 0.00 | 0.00 | 86 | 1012.4 |
| 20260507164335 | 14 | 227 | 0.0 | 0.0 | 0.00 | 0.00 | 0.00 | 86 | 1012.4 |
| 20260507163835 | 14 | 227 | 0.0 | 0.0 | 0.00 | 0.00 | 0.00 | 86 | 1012.5 |
| 20260507163335 | 14 | 227 | 0.0 | 0.0 | 0.00 | 0.00 | 0.00 | 86 | 1012.5 |
| 20260507162834 | 14 | 227 | 0.0 | 0.0 | 0.00 | 0.00 | 0.00 | 85 | 1012.4 |
| 20260507162334 | 14 | 227 | 0.0 | 0.0 | 0.00 | 0.00 | 0.00 | 85 | 1012.3 |
| 20260507161834 | 14 | 227 | 0.0 | 4.8 | 0.00 | 0.00 | 0.00 | 86 | 1012.3 |
| 20260507161334 | 14 | 240 | 3.2 | 4.8 | 0.00 | 0.00 | 0.00 | 85 | 1012.3 |
| 20260507160833 | 14 | 255 | 1.6 | 6.4 | 0.00 | 0.00 | 0.00 | 84 | 1012.1 |
| 20260507160333 | 14 | 268 | 0.0 | 8.0 | 0.00 | 0.00 | 0.00 | 83 | 1012.0 |
| 20260507155833 | 15 | 352 | 6.4 | 6.4 | 0.00 | 0.00 | 0.00 | 81 | 1012.0 |
| 20260507155332 | 15 | 264 | 0.0 | 9.7 | 0.00 | 0.00 | 0.00 | 80 | 1012.1 |
| 20260507154832 | 15 | 4 | 0.0 | 4.8 | 0.00 | 0.00 | 0.00 | 77 | 1012.0 |
| 20260507154333 | 15 | 260 | 1.6 | 11.3 | 0.00 | 0.00 | 0.00 | 74 | 1011.7 |
| 20260507153831 | 16 | 236 | 1.6 | 11.3 | 0.00 | 0.00 | 0.00 | 70 | 1011.7 |
| 20260507153527 | 16 | 127 | 1.6 | 4.8 | 0.00 | 0.00 | 0.00 | 68 | 1011.6 |
| 20260507153331 | 16 | 127 | 1.6 | 4.8 | 0.00 | 0.00 | 0.00 | 68 | 1011.6 |
| 20260507153114 | 16 | 316 | 0.0 | 9.7 | 0.00 | 0.00 | 0.00 | ||
| 20260507152831 | 16 | 316 | 0.0 | 9.7 | 0.00 | 0.00 | 0.00 | 66 | 1011.5 |
| 20260507152331 | 17 | 271 | 3.2 | 9.7 | 0.00 | 0.00 | 0.00 | 64 | 1011.7 |
| 20260507152228 | 17 | 286 | 3.2 | 11.3 | 0.00 | 0.00 | 0.00 | 61 | 1011.6 |
| 20260507151830 | 17 | 286 | 3.2 | 11.3 | 0.00 | 0.00 | 0.00 | 61 | 1011.6 |
| 20260507151330 | 17 | 260 | 0.0 | 8.0 | 0.00 | 0.00 | 0.00 | 60 | 1011.5 |
| 20260507150830 | 17 | 270 | 4.8 | 9.7 | 0.00 | 0.00 | 0.00 | 59 | 1011.6 |
| 20260507150330 | 17 | 337 | 0.0 | 8.0 | 0.00 | 0.00 | 0.00 | 59 | 1011.4 |
| 20260507145829 | 17 | 264 | 0.0 | 8.0 | 0.00 | 0.00 | 0.00 | 58 | 1011.4 |
| 20260507145329 | 17 | 239 | 1.6 | 11.3 | 0.00 | 0.00 | 0.00 | 57 | 1011.4 |
| 20260507144829 | 17 | 302 | 3.2 | 8.0 | 0.00 | 0.00 | 0.00 | 56 | 1011.4 |
| 20260507144328 | 18 | 336 | 3.2 | 11.3 | 0.00 | 0.00 | 0.00 | 55 | 1011.3 |
| 20260507143828 | 18 | 1 | 1.6 | 14.5 | 0.00 | 0.00 | 0.00 | 54 | 1011.3 |
| 20260507143328 | 18 | 274 | 0.0 | 14.5 | 0.00 | 0.00 | 0.00 | 53 | 1011.3 |
| 20260507142828 | 18 | 306 | 4.8 | 14.5 | 0.00 | 0.00 | 0.00 | 54 | 1011.3 |
| 20260507142327 | 20 | 246 | 6.4 | 14.5 | 0.00 | 0.00 | 0.00 | 52 | 1011.1 |
| 20260507141827 | 20 | 239 | 12.9 | 14.5 | 0.00 | 0.00 | 0.00 | 47 | 1011.0 |
| 20260507141327 | 20 | 215 | 4.8 | 19.3 | 0.00 | 0.00 | 0.00 | 46 | 1010.8 |
| 20260507140826 | 20 | 181 | 0.0 | 12.9 | 0.00 | 0.00 | 0.00 | 47 | 1010.8 |
| 20260507140326 | 20 | 250 | 12.9 | 22.5 | 0.00 | 0.00 | 0.00 | 46 | 1010.7 |
| 20260507135826 | 20 | 237 | 14.5 | 20.9 | 0.00 | 0.00 | 0.00 | 45 | 1010.8 |
| 20260507135326 | 20 | 233 | 19.3 | 19.3 | 0.00 | 0.00 | 0.00 | 46 | 1010.7 |
| 20260507134825 | 20 | 237 | 4.8 | 16.1 | 0.00 | 0.00 | 0.00 | 45 | 1010.7 |
| 20260507134325 | 20 | 225 | 8.0 | 16.1 | 0.00 | 0.00 | 0.00 | 45 | 1010.6 |
| 20260507133825 | 20 | 143 | 3.2 | 17.7 | 0.00 | 0.00 | 0.00 | 45 | 1010.6 |
| 20260507133324 | 20 | 295 | 11.3 | 17.7 | 0.00 | 0.00 | 0.00 | 45 | 1010.5 |
| 20260507132824 | 21 | 213 | 4.8 | 14.5 | 0.00 | 0.00 | 0.00 | 45 | 1010.5 |
| 20260507132324 | 21 | 232 | 6.4 | 14.5 | 0.00 | 0.00 | 0.00 | 45 | 1010.4 |
| 20260507131824 | 20 | 212 | 11.3 | 16.1 | 0.00 | 0.00 | 0.00 | 44 | 1010.4 |
| 20260507131323 | 21 | 220 | 8.0 | 22.5 | 0.00 | 0.00 | 0.00 | 43 | 1010.5 |
| 20260507130823 | 21 | 233 | 4.8 | 19.3 | 0.00 | 0.00 | 0.00 | 43 | 1010.5 |
| 20260507130323 | 21 | 227 | 4.8 | 22.5 | 0.00 | 0.00 | 0.00 | 43 | 1010.5 |
| 20260507125822 | 21 | 213 | 6.4 | 24.1 | 0.00 | 0.00 | 0.00 | 43 | 1010.5 |
| 20260507125322 | 21 | 239 | 4.8 | 14.5 | 0.00 | 0.00 | 0.00 | 42 | 1010.5 |
| 20260507124822 | 21 | 233 | 8.0 | 22.5 | 0.00 | 0.00 | 0.00 | 41 | 1010.5 |
| 20260507124322 | 21 | 222 | 8.0 | 17.7 | 0.00 | 0.00 | 0.00 | 43 | 1010.6 |
| 20260507123821 | 21 | 175 | 9.7 | 22.5 | 0.00 | 0.00 | 0.00 | 42 | 1010.5 |
| 20260507123321 | 21 | 219 | 22.5 | 22.5 | 0.00 | 0.00 | 0.00 | 43 | 1010.6 |
| 20260507122821 | 21 | 261 | 11.3 | 16.1 | 0.00 | 0.00 | 0.00 | 43 | 1010.6 |
| 20260507122320 | 21 | 246 | 8.0 | 14.5 | 0.00 | 0.00 | 0.00 | 44 | 1010.6 |
| 20260507121820 | 21 | 233 | 8.0 | 16.1 | 0.00 | 0.00 | 0.00 | 45 | 1010.6 |
| 20260507121320 | 20 | 250 | 4.8 | 17.7 | 0.00 | 0.00 | 0.00 | 44 | 1010.8 |
| 20260507120820 | 21 | 251 | 6.4 | 27.4 | 0.00 | 0.00 | 0.00 | 44 | 1010.8 |
| 20260507120319 | 21 | 192 | 24.1 | 24.1 | 0.00 | 0.00 | 0.00 | 43 | 1010.8 |
| 20260507115819 | 21 | 111 | 6.4 | 20.9 | 0.00 | 0.00 | 0.00 | 44 | 1010.8 |
| 20260507115319 | 21 | 203 | 14.5 | 19.3 | 0.00 | 0.00 | 0.00 | 44 | 1010.9 |
| 20260507114818 | 21 | 216 | 17.7 | 24.1 | 0.00 | 0.00 | 0.00 | 44 | 1010.9 |
| 20260507114318 | 21 | 156 | 16.1 | 19.3 | 0.00 | 0.00 | 0.00 | 45 | 1011.0 |
| 20260507113818 | 21 | 213 | 4.8 | 27.4 | 0.00 | 0.00 | 0.00 | 43 | 1011.1 |
| 20260507113318 | 21 | 229 | 11.3 | 25.7 | 0.00 | 0.00 | 0.00 | 42 | 1011.1 |
| 20260507112817 | 21 | 262 | 3.2 | 24.1 | 0.00 | 0.00 | 0.00 | 43 | 1011.0 |
| 20260507112317 | 21 | 171 | 6.4 | 19.3 | 0.00 | 0.00 | 0.00 | 43 | 1011.0 |
| 20260507111817 | 21 | 172 | 6.4 | 24.1 | 0.00 | 0.00 | 0.00 | 42 | 1011.1 |
| 20260507111317 | 21 | 199 | 14.5 | 22.5 | 0.00 | 0.00 | 0.00 | 42 | 1011.0 |
| 20260507110816 | 21 | 223 | 9.7 | 17.7 | 0.00 | 0.00 | 0.00 | 43 | 1011.0 |
| 20260507110316 | 21 | 225 | 4.8 | 22.5 | 0.00 | 0.00 | 0.00 | 42 | 1011.0 |
| 20260507105816 | 21 | 272 | 8.0 | 22.5 | 0.00 | 0.00 | 0.00 | 42 | 1011.0 |
| 20260507105315 | 21 | 239 | 9.7 | 20.9 | 0.00 | 0.00 | 0.00 | 41 | 1011.0 |
| 20260507104815 | 21 | 178 | 4.8 | 16.1 | 0.00 | 0.00 | 0.00 | 44 | 1011.0 |
| 20260507104315 | 21 | 202 | 3.2 | 24.1 | 0.00 | 0.00 | 0.00 | 44 | 1011.0 |
| 20260507103815 | 21 | 253 | 9.7 | 25.7 | 0.00 | 0.00 | 0.00 | 42 | 1011.0 |
| 20260507103314 | 21 | 196 | 8.0 | 20.9 | 0.00 | 0.00 | 0.00 | 42 | 1011.0 |
| 20260507102814 | 21 | 209 | 8.0 | 16.1 | 0.00 | 0.00 | 0.00 | 44 | 1011.1 |
| 20260507102314 | 21 | 237 | 12.9 | 14.5 | 0.00 | 0.00 | 0.00 | 43 | 1011.1 |
| 20260507101813 | 21 | 232 | 9.7 | 24.1 | 0.00 | 0.00 | 0.00 | 43 | 1011.0 |
| 20260507101313 | 21 | 226 | 14.5 | 20.9 | 0.00 | 0.00 | 0.00 | 42 | 1011.1 |
| 20260507100813 | 21 | 201 | 3.2 | 20.9 | 0.00 | 0.00 | 0.00 | 43 | 1011.0 |
| 20260507100313 | 21 | 206 | 4.8 | 19.3 | 0.00 | 0.00 | 0.00 | 43 | 1010.9 |
| 20260507095812 | 21 | 209 | 8.0 | 19.3 | 0.00 | 0.00 | 0.00 | 42 | 1011.0 |
| 20260507095312 | 21 | 241 | 12.9 | 20.9 | 0.00 | 0.00 | 0.00 | 44 | 1010.9 |
| 20260507094812 | 21 | 203 | 11.3 | 25.7 | 0.00 | 0.00 | 0.00 | 42 | 1010.9 |
| 20260507094311 | 21 | 230 | 6.4 | 20.9 | 0.00 | 0.00 | 0.00 | 43 | 1011.0 |
| 20260507093811 | 21 | 241 | 12.9 | 25.7 | 0.00 | 0.00 | 0.00 | 43 | 1011.0 |
| 20260507093311 | 21 | 232 | 3.2 | 25.7 | 0.00 | 0.00 | 0.00 | 44 | 1010.9 |
| 20260507092811 | 20 | 175 | 9.7 | 20.9 | 0.00 | 0.00 | 0.00 | 43 | 1011.0 |
| 20260507092310 | 20 | 240 | 14.5 | 22.5 | 0.00 | 0.00 | 0.00 | 45 | 1011.0 |
| 20260507091810 | 20 | 210 | 12.9 | 24.1 | 0.00 | 0.00 | 0.00 | 46 | 1011.0 |
| 20260507091310 | 20 | 232 | 11.3 | 17.7 | 0.00 | 0.00 | 0.00 | 49 | 1011.0 |
| 20260507090809 | 20 | 246 | 8.0 | 17.7 | 0.00 | 0.00 | 0.00 | 49 | 1011.0 |
| 20260507090309 | 20 | 254 | 3.2 | 20.9 | 0.00 | 0.00 | 0.00 | 49 | 1010.9 |
| 20260507085809 | 19 | 196 | 3.2 | 16.1 | 0.00 | 0.00 | 0.00 | 51 | 1010.9 |
| 20260507085309 | 19 | 236 | 3.2 | 14.5 | 0.00 | 0.00 | 0.00 | 50 | 1010.9 |
| 20260507084808 | 19 | 158 | 3.2 | 14.5 | 0.00 | 0.00 | 0.00 | 51 | 1011.0 |
| 20260507084308 | 19 | 264 | 8.0 | 14.5 | 0.00 | 0.00 | 0.00 | 50 | 1010.9 |
| 20260507083808 | 19 | 175 | 6.4 | 17.7 | 0.00 | 0.00 | 0.00 | 51 | 1010.9 |
| 20260507083307 | 19 | 122 | 0.0 | 17.7 | 0.00 | 0.00 | 0.00 | 52 | 1010.8 |
| 20260507082807 | 18 | 209 | 12.9 | 19.3 | 0.00 | 0.00 | 0.00 | 53 | 1010.8 |
| 20260507082307 | 18 | 130 | 4.8 | 19.3 | 0.00 | 0.00 | 0.00 | 54 | 1010.7 |
| 20260507081807 | 18 | 201 | 0.0 | 17.7 | 0.00 | 0.00 | 0.00 | 54 | 1010.8 |
| 20260507081306 | 18 | 199 | 14.5 | 20.9 | 0.00 | 0.00 | 0.00 | 55 | 1010.7 |
| 20260507080806 | 18 | 205 | 12.9 | 19.3 | 0.00 | 0.00 | 0.00 | 54 | 1010.7 |
| 20260507080306 | 18 | 203 | 11.3 | 20.9 | 0.00 | 0.00 | 0.00 | 54 | 1010.8 |
| 20260507075806 | 18 | 196 | 1.6 | 14.5 | 0.00 | 0.00 | 0.00 | 56 | 1010.8 |
| 20260507075307 | 18 | 233 | 3.2 | 16.1 | 0.00 | 0.00 | 0.00 | 56 | 1010.8 |
| 20260507074805 | 18 | 260 | 6.4 | 14.5 | 0.00 | 0.00 | 0.00 | 56 | 1010.8 |
| 20260507074305 | 18 | 234 | 6.4 | 14.5 | 0.00 | 0.00 | 0.00 | 57 | 1010.8 |
| 20260507073804 | 18 | 199 | 4.8 | 14.5 | 0.00 | 0.00 | 0.00 | 56 | 1010.7 |
| 20260507073304 | 17 | 209 | 9.7 | 16.1 | 0.00 | 0.00 | 0.00 | 57 | 1010.7 |
| 20260507072804 | 17 | 213 | 4.8 | 22.5 | 0.00 | 0.00 | 0.00 | 56 | 1010.6 |
| 20260507072306 | 17 | 164 | 4.8 | 16.1 | 0.00 | 0.00 | 0.00 | 57 | 1010.6 |
| 20260507071803 | 17 | 209 | 1.6 | 20.9 | 0.00 | 0.00 | 0.00 | 58 | 1010.6 |
| 20260507071303 | 17 | 171 | 3.2 | 17.7 | 0.00 | 0.00 | 0.00 | 57 | 1010.6 |
| 20260507070803 | 17 | 241 | 8.0 | 19.3 | 0.00 | 0.00 | 0.00 | 57 | 1010.6 |
| 20260507070302 | 17 | 230 | 14.5 | 17.7 | 0.00 | 0.00 | 0.00 | 57 | 1010.6 |
| 20260507065802 | 17 | 210 | 8.0 | 17.7 | 0.00 | 0.00 | 0.00 | 57 | 1010.5 |
| 20260507065305 | 17 | 178 | 0.0 | 6.4 | 0.00 | 0.00 | 0.00 | 58 | 1010.3 |
| 20260507064802 | 17 | 217 | 3.2 | 11.3 | 0.00 | 0.00 | 0.00 | 58 | 1010.3 |
| 20260507064301 | 17 | 172 | 4.8 | 12.9 | 0.00 | 0.00 | 0.00 | 58 | 1010.3 |
| 20260507063801 | 17 | 147 | 6.4 | 12.9 | 0.00 | 0.00 | 0.00 | 58 | 1010.3 |
| 20260507063301 | 17 | 233 | 4.8 | 9.7 | 0.00 | 0.00 | 0.00 | 59 | 1010.3 |
| 20260507062800 | 17 | 243 | 6.4 | 11.3 | 0.00 | 0.00 | 0.00 | 59 | 1010.3 |
| 20260507062300 | 17 | 160 | 4.8 | 17.7 | 0.00 | 0.00 | 0.00 | 59 | 1010.1 |
| 20260507061800 | 17 | 196 | 3.2 | 12.9 | 0.00 | 0.00 | 0.00 | 60 | 1010.1 |
| 20260507061300 | 17 | 243 | 1.6 | 9.7 | 0.00 | 0.00 | 0.00 | 60 | 1010.2 |
| 20260507060759 | 17 | 182 | 3.2 | 9.7 | 0.00 | 0.00 | 0.00 | 60 | 1010.2 |
| 20260507060259 | 17 | 223 | 3.2 | 12.9 | 0.00 | 0.00 | 0.00 | 61 | 1010.2 |
| 20260507055759 | 17 | 240 | 6.4 | 12.9 | 0.00 | 0.00 | 0.00 | 60 | 1010.1 |
| 20260507055258 | 16 | 182 | 4.8 | 14.5 | 0.00 | 0.00 | 0.00 | 61 | 1010.1 |
| 20260507054758 | 16 | 230 | 11.3 | 14.5 | 0.00 | 0.00 | 0.00 | 59 | 1010.1 |
| 20260507054258 | 16 | 104 | 3.2 | 9.7 | 0.00 | 0.00 | 0.00 | 61 | 1010.0 |
| 20260507053758 | 16 | 205 | 3.2 | 14.5 | 0.00 | 0.00 | 0.00 | 60 | 1010.0 |
| 20260507053257 | 16 | 222 | 1.6 | 11.3 | 0.00 | 0.00 | 0.00 | 61 | 1010.1 |
| 20260507052757 | 16 | 232 | 6.4 | 12.9 | 0.00 | 0.00 | 0.00 | 60 | 1010.1 |
| 20260507052257 | 16 | 188 | 3.2 | 17.7 | 0.00 | 0.00 | 0.00 | 61 | 1010.1 |
| 20260507051756 | 16 | 213 | 3.2 | 11.3 | 0.00 | 0.00 | 0.00 | 62 | 1010.1 |
| 20260507051256 | 16 | 199 | 0.0 | 14.5 | 0.00 | 0.00 | 0.00 | 62 | 1010.1 |
| 20260507050756 | 16 | 217 | 4.8 | 12.9 | 0.00 | 0.00 | 0.00 | 62 | 1010.1 |
| 20260507050256 | 16 | 213 | 3.2 | 14.5 | 0.00 | 0.00 | 0.00 | 62 | 1010.2 |
| 20260507045755 | 16 | 239 | 3.2 | 12.9 | 0.00 | 0.00 | 0.00 | 62 | 1010.2 |
| 20260507045255 | 16 | 253 | 4.8 | 16.1 | 0.00 | 0.00 | 0.00 | 61 | 1010.1 |
| 20260507044755 | 16 | 164 | 3.2 | 14.5 | 0.00 | 0.00 | 0.00 | 61 | 1010.1 |
| 20260507044254 | 16 | 229 | 11.3 | 12.9 | 0.00 | 0.00 | 0.00 | 60 | 1010.1 |
| 20260507043754 | 16 | 192 | 8.0 | 16.1 | 0.00 | 0.00 | 0.00 | 60 | 1010.0 |
| 20260507043254 | 16 | 248 | 1.6 | 14.5 | 0.00 | 0.00 | 0.00 | 60 | 1010.0 |
| 20260507042754 | 16 | 209 | 4.8 | 14.5 | 0.00 | 0.00 | 0.00 | 60 | 1010.0 |
| 20260507042253 | 16 | 208 | 3.2 | 12.9 | 0.00 | 0.00 | 0.00 | 60 | 1009.9 |
| 20260507041753 | 16 | 188 | 4.8 | 8.0 | 0.00 | 0.00 | 0.00 | 60 | 1009.8 |
| 20260507041253 | 16 | 209 | 3.2 | 9.7 | 0.00 | 0.00 | 0.00 | 61 | 1009.7 |
| 20260507040753 | 16 | 225 | 8.0 | 9.7 | 0.00 | 0.00 | 0.00 | 61 | 1009.6 |
| 20260507040252 | 16 | 244 | 3.2 | 8.0 | 0.00 | 0.00 | 0.00 | 60 | 1009.6 |
| 20260507035752 | 16 | 199 | 4.8 | 14.5 | 0.00 | 0.00 | 0.00 | 60 | 1009.6 |
| 20260507035252 | 16 | 142 | 3.2 | 14.5 | 0.00 | 0.00 | 0.00 | 59 | 1009.5 |
| 20260507034751 | 16 | 153 | 1.6 | 12.9 | 0.00 | 0.00 | 0.00 | 59 | 1009.5 |